| time (UTC) | temp C | wind direction | speed KPH | gust KPH | rain 1hr cm | rain 24hr cm | rain mn cm | humidity % | barometer mb |
| 20260504081519 | 9 | 292 | 1.6 | 4.8 | 0.00 | 0.05 | 0.00 | 43 | 1000.9 |
| 20260504044614 | 9 | 360 | 1.6 | 4.8 | 0.00 | 0.05 | 0.05 | 38 | 1002.3 |
| 20260504043054 | 10 | 295 | 1.6 | 6.4 | 0.00 | 0.05 | 0.05 | 37 | 1002.4 |
| 20260504041553 | 10 | 295 | 3.2 | 6.4 | 0.00 | 0.05 | 0.05 | 37 | 1002.5 |
| 20260504040109 | 10 | 360 | 3.2 | 6.4 | 0.00 | 0.05 | 0.05 | 36 | 1002.6 |
| 20260504034558 | 10 | 360 | 1.6 | 6.4 | 0.00 | 0.05 | 0.05 | 36 | 1002.6 |
| 20260504033054 | 10 | 360 | 1.6 | 3.2 | 0.00 | 0.05 | 0.05 | 35 | 1002.6 |
| 20260504031551 | 11 | 360 | 3.2 | 6.4 | 0.00 | 0.05 | 0.05 | 34 | 1002.4 |
| 20260504030050 | 11 | 360 | 1.6 | 4.8 | 0.00 | 0.05 | 0.05 | 33 | 1002.4 |
| 20260504024550 | 12 | 360 | 3.2 | 6.4 | 0.00 | 0.05 | 0.05 | 32 | 1002.4 |
| 20260504023049 | 12 | 360 | 3.2 | 6.4 | 0.00 | 0.05 | 0.05 | 31 | 1002.2 |
| 20260504021549 | 13 | 300 | 3.2 | 6.4 | 0.00 | 0.05 | 0.05 | 30 | 1002.3 |
| 20260504020047 | 14 | 302 | 3.2 | 8.0 | 0.00 | 0.05 | 0.05 | 29 | 1002.2 |
| 20260504014546 | 16 | 311 | 4.8 | 8.0 | 0.00 | 0.05 | 0.05 | 27 | 1002.4 |
| 20260504013052 | 16 | 319 | 8.0 | 20.9 | 0.00 | 0.05 | 0.05 | 26 | 1002.6 |
| 20260504011543 | 17 | 312 | 6.4 | 19.3 | 0.00 | 0.05 | 0.05 | 25 | 1002.7 |
| 20260504010049 | 17 | 319 | 9.7 | 17.7 | 0.00 | 0.05 | 0.05 | 25 | 1002.7 |
| 20260504004541 | 18 | 315 | 11.3 | 20.9 | 0.00 | 0.05 | 0.05 | 24 | 1002.8 |
| 20260504003039 | 18 | 324 | 12.9 | 19.3 | 0.00 | 0.05 | 0.05 | 25 | 1002.9 |
| 20260504001540 | 18 | 355 | 14.5 | 20.9 | 0.00 | 0.05 | 0.05 | 25 | 1003.0 |
| 20260504000041 | 18 | 309 | 14.5 | 27.4 | 0.00 | 0.05 | 0.05 | 25 | 1003.2 |
| 20260503234535 | 19 | 301 | 12.9 | 24.1 | 0.00 | 0.05 | 0.05 | 23 | 1003.3 |
| 20260503233033 | 19 | 327 | 12.9 | 27.4 | 0.00 | 0.05 | 0.05 | 24 | 1003.4 |
| 20260503231533 | 18 | 13 | 9.7 | 19.3 | 0.00 | 0.05 | 0.05 | 28 | 1003.7 |
| 20260503230037 | 20 | 299 | 12.9 | 22.5 | 0.00 | 0.05 | 0.05 | 25 | 1003.6 |
| 20260503224534 | 20 | 314 | 12.9 | 27.4 | 0.00 | 0.05 | 0.05 | 24 | 1003.6 |
| 20260503223030 | 20 | 5 | 9.7 | 25.7 | 0.00 | 0.05 | 0.05 | 26 | 1003.7 |
| 20260503221527 | 19 | 313 | 16.1 | 20.9 | 0.00 | 0.05 | 0.05 | 25 | 1003.8 |
| 20260503220028 | 20 | 284 | 14.5 | 32.2 | 0.03 | 0.05 | 0.05 | 26 | 1004.0 |
| 20260503214527 | 20 | 309 | 16.1 | 29.0 | 0.03 | 0.05 | 0.05 | 27 | 1004.3 |
| 20260503213021 | 20 | 344 | 11.3 | 25.7 | 0.03 | 0.05 | 0.05 | 28 | 1004.6 |
| 20260503211517 | 19 | 289 | 14.5 | 27.4 | 0.03 | 0.05 | 0.05 | 28 | 1004.7 |
| 20260503210015 | 18 | 326 | 12.9 | 27.4 | 0.00 | 0.03 | 0.03 | 33 | 1004.9 |
| 20260503204519 | 18 | 355 | 3.2 | 20.9 | 0.00 | 0.03 | 0.03 | 34 | 1005.0 |
| 20260503203012 | 17 | 319 | 11.3 | 20.9 | 0.00 | 0.03 | 0.03 | 37 | 1005.3 |
| 20260503201511 | 15 | 263 | 12.9 | 20.9 | 0.03 | 0.03 | 0.03 | 46 | 1005.5 |
| 20260503200011 | 12 | 261 | 4.8 | 11.3 | 0.03 | 0.03 | 0.03 | 51 | 1005.5 |
| 20260503194508 | 10 | 360 | 1.6 | 3.2 | 0.03 | 0.03 | 0.03 | 64 | 1005.7 |
| 20260503193006 | 10 | 360 | 6.4 | 20.9 | 0.03 | 0.03 | 0.03 | 65 | 1006.2 |
| 20260503191516 | 13 | 282 | 37.0 | 56.3 | 0.00 | 0.00 | 0.00 | 45 | 1006.5 |
| 20260503190007 | 16 | 244 | 11.3 | 19.3 | 0.00 | 0.00 | 0.00 | 33 | 1006.0 |
| 20260503184502 | 18 | 236 | 16.1 | 29.0 | 0.00 | 0.00 | 0.00 | 31 | 1006.1 |
| 20260503183058 | 18 | 193 | 4.8 | 24.1 | 0.00 | 0.00 | 0.00 | 33 | 1006.5 |
| 20260503181556 | 17 | 178 | 8.0 | 27.4 | 0.00 | 0.00 | 0.00 | 36 | 1006.8 |
| 20260503174547 | 17 | 193 | 9.7 | 17.7 | 0.00 | 0.00 | 0.00 | 36 | 1007.4 |
| 20260503173051 | 17 | 174 | 4.8 | 22.5 | 0.00 | 0.00 | 0.00 | 38 | 1007.6 |
| 20260503171542 | 16 | 360 | 6.4 | 17.7 | 0.00 | 0.00 | 0.00 | 36 | 1008.0 |